Regional Weather Roundup
Issued by NWS Grand Forks, ND

Home | Current Version | Previous Version | Text Only | Print | Product List | Glossary Off
Versions: 1 2 3 4 5 6 7 8 9 10 11 12 13 14 15 16 17 18 19 20 21 22 23 24 25 26 27 28 29 30 31 32 33 34 35 36 37 38 39 40 41 42 43 44 45 46 47 48 49 50

000
ASUS43 KFGF 292031
RWRFGF
PRAIRIE TO PINES  WEATHER ROUNDUP
NATIONAL WEATHER SERVICE EASTERN NORTH DAKOTA/GRAND FORKS ND
300 PM CDT TUE JUL 29 2014

 **SATELLITE DATA USED TO AUGMENT SKY COVER AT AUTOMATED STATIONS**
 *****  WEATHER ACROSS EASTERN NORTH DAKOTA  *****

CITY           SKY/WX    TMP DP  RH WIND       PRES   REMARKS
GRAND FORKS    MOSUNNY   75  56  51 N5        30.13F
GRAND FRKS AFB SUNNY     78  56  46 NW7       30.15F
GRAND FRKS NWS   N/A     79 N/A N/A NW2         N/A
DEVILS LAKE    SUNNY     73  54  49 N9        30.16S
FARGO          MOSUNNY   79  49  34 N12G17    30.13F
WAHPETON ARPT  PTCLDY    77  48  36 NW8       30.15S
$$

 ***** WEATHER ACROSS CENTRAL AND WESTERN NORTH DAKOTA  *****

CITY           SKY/WX    TMP DP  RH WIND       PRES   REMARKS
BISMARCK       CLOUDY    77  53  43 VRB5      30.18F
MINOT          MOSUNNY   77  57  50 S6        30.17F
JAMESTOWN      MOSUNNY   76  51  41 VRB5      30.17F
MINOT AFB      CLOUDY    77  59  54 SE3       30.16F
GARRISON         N/A     78  57  48 CALM      30.18F
WILLISTON      MOSUNNY   84  51  31 N9        30.17F
DICKINSON      MOSUNNY   81  52  36 S6        30.18F
HETTINGER      PTSUNNY   80  48  32 VRB3      30.21F
$$

 *****  OTHER AIRPORT OBSERVATIONS IN OUR AREA  *****

CITY           SKY/WX    TMP DP  RH WIND       PRES   REMARKS
WALHALLA       FAIR      75  54  46 N9          N/A
GRAFTON AIRPOR FAIR      77  52  41 NW12      30.14S
VALLEY CITY AR MOCLDY    75  50  41 N8        30.17S
CANDO          FAIR      75  54  46 N6        30.18F
CAVALIER APRT  FAIR      75  52  43 N6        30.14F
GWINNER        MOCLDY    75  52  43 N5        30.18F
ROLLA            N/A     73  55  53 N7        30.20S
 ***** THE ABOVE OBSERVATIONS ARE NON NWS ARE NOT QUALITY
       CONTROLLED AND MAY MIS-REPORT RAIN FOR SNOW...
$$

  *****  WEATHER ACROSS NORTHERN MINNESOTA  *****

CITY           SKY/WX    TMP DP  RH WIND       PRES   REMARKS
FLAG ISLAND    MOSUNNY   75  54  46 NW18      30.07S
WARROAD        MOSUNNY   77  57  50 W10G20    30.10S
ROSEAU         MOSUNNY   77  59  53 NW8       30.10F
HALLOCK        SUNNY     77  54  44 NW8       30.12F
THF RVR FALLS  MOSUNNY   73  54  49 NW8       30.13S
BAUDETTE       SUNNY     77  55  46 NW12      30.09F
WASKISH        MOSUNNY   75  57  53 NW8       30.09S
CROOKSTON      MOSUNNY   75  55  50 NW10      30.14S
$$
  *****  WEATHER ACROSS CENTRAL AND WEST MINNESOTA  *****

CITY           SKY/WX    TMP DP  RH WIND       PRES   REMARKS
FOSSTON        MOSUNNY   75  55  50 NW8       30.14S
BEMIDJI        MOSUNNY   74  55  51 N7        30.12S
PARK RAPIDS    MOSUNNY   75  52  44 NW7       30.12F
ELBOW LAKE     FAIR      73  55  53 NW9       30.15S
WADENA         MOSUNNY   73  55  53 NW12      30.13F
DETROIT LAKES  MOSUNNY   72  54  53 NW9       30.16S
MOORHEAD       MOSUNNY   77  55  47 N7        30.14F
FERGUS FALLS   SUNNY     75  50  41 NW9       30.14S
MORRIS MN      MOSUNNY   75  55  50 NW8       30.15S
STAPLES        MOSUNNY   75  52  43 NW13      30.12F
$$
  *****  WEATHER ELSEWHERE ACROSS MINNESOTA  *****

CITY           SKY/WX    TMP DP  RH WIND       PRES   REMARKS
DULUTH         MOSUNNY   77  53  43 NW15      30.02F
INTRNTL FALLS  PTSUNNY   76  55  48 NW10      30.04F
ELY            MOSUNNY   73  55  53 N7        30.01F
CLOQUET        MOSUNNY   75  52  43 W15G22    30.04F
WHEATON        MOSUNNY   72  55  56 NW13      30.17F
BRAINERD       PTSUNNY   75  53  46 W10       30.10F
HIBBING        MOSUNNY   77  52  41 W14G21    30.04F
ALEXANDRIA     MOSUNNY   76  53  44 NW10      30.16F
SAINT CLOUD    MOSUNNY   81  55  40 NW7G16    30.09F
MINNEAPOLIS    PTSUNNY   78  54  43 W10G17    30.08F
$$

  *****  WEATHER ACROSS SOUTH DAKOTA  *****

CITY           SKY/WX    TMP DP  RH WIND       PRES   REMARKS
SIOUX FALLS    PTSUNNY   75  53  46 N8        30.19S
BROOKINGS      NOT AVBL
WATERTOWN      MOSUNNY   74  51  44 N12       30.19S
HURON          MOSUNNY   77  49  37 VRB3      30.17F
SISSETON         N/A     77  53  43 VRB3      30.16S
ABERDEEN       MOSUNNY   75  52  44 NE6       30.17F
MITCHELL       MOSUNNY   77  54  44 NE5       30.18F
PIERRE         SUNNY     81  51  35 NE8       30.17F
MOBRIDGE       MOSUNNY   78  53  41 N7        30.17F
RAPID CITY     CLOUDY    69  59  70 SE8       30.26F
$$

  *****  SOME WEATHER IN NEARBY STATES *****

CITY           SKY/WX    TMP DP  RH WIND       PRES   REMARKS
GLASGOW MT     SUNNY     90  43  19 NE13G18   30.17F
GREAT FALLS MT SUNNY     90  43  19 NE8       30.18F
CHEYENNE WY    LGT RAIN  63  57  81 N7        30.29S
SCOTTSBLUFF NE MOSUNNY   81  62  52 E8        30.20F
OMAHA NE       PTSUNNY   79  52  38 N6        30.17F
DES MOINES IA  MOSUNNY   79  53  40 W12       30.14F
DAVENPORT IA   MOSUNNY   77  57  50 W12G20    30.09F
CHICAGO IL     PTSUNNY   79  50  36 NW16      30.01S
EAU CLAIRE WI  PTSUNNY   71  56  58 W12G20    30.04F
LA CROSSE WI   SUNNY     82  55  39 NW12      30.04F
$$

  *****  SOME NATIONAL WEATHER *****

CITY           SKY/WX    TMP DP  RH WIND       PRES   REMARKS
LA GUARDIA NY  PTSUNNY   75  49  39 N9        29.88R
RALEIGH NC     MOSUNNY   78  56  46 NW5       29.94F
ATLANTA GA     MOSUNNY   81  59  47 NW9G18    29.99F
NEW ORLEANS LA PTSUNNY   88  67  49 N10       30.04F HX  91
OKLAHOMA CITY  PTSUNNY   91  55  29 SW7G16    30.15F
ALBUQUERQUE NM MOSUNNY   80  55  42 SW8       30.25F
SALT LAKE CITY RAIN      67  64  90 SE5       30.20S
LOS ANGELES CA PTSUNNY   75  64  68 W12       30.01F
BOISE ID       MOSUNNY   92  48  22 VRB7      30.06F
SEATTLE WA     SUNNY     82  50  32 N9        30.14F
$$

*** WEATHER ACROSS MANITOBA...SASKATCHEWAN AND ONTARIO ***
                ***ONTARIO***

CITY           SKY/WX    TMP DP  RH WIND       PRES   REMARKS
GERALDTON      PTSUNNY   59  48  67 NE8       30.01R
THUNDER BAY    PTSUNNY   68  61  77 S5        29.98R
SIOUX LOOKOUT  CLOUDY    70  54  56 N9G20     30.04S
TORONTO        CLOUDY    70  52  52 W14       29.92
BIG TROUT LK   MOSUNNY   68  45  42 N5        30.07F
PICKLE LAKE    MOSUNNY   68  45  42 N5        30.06S
DRYDEN         MOSUNNY   75  57  53 N7        30.03F
KENORA         CLOUDY    75  55  50 N10       30.08S
$$
                *** MANITOBA***

CITY           SKY/WX    TMP DP  RH WIND       PRES   REMARKS
BRANDON        PTSUNNY   77  50  38 NW5       30.17F
DAUPHIN        MOSUNNY   77  50  38 NW3       30.15F
ISLAND LAKE    PTSUNNY   75  57  53 S3        30.09S
PILOT MOUND      N/A     72  54  53 N7          N/A
THE PAS        MOSUNNY   82  55  39 NW3       30.11F
THOMPSON       MOSUNNY   79  57  47 E7        30.08F
WINNIPEG       MOSUNNY   77  54  44 N8        30.13F
LYNN LAKE      SUNNY     84  46  26 N7        30.10F
CHURCHILL      SUNNY     63  54  72 NE9       30.13F
GILLAM         MOSUNNY   72  54  53 N8        30.11F
$$
                ***SASKATCHEWAN***

CITY           SKY/WX    TMP DP  RH WIND       PRES   REMARKS
ESTEVAN        MOSUNNY   77  59  53 NW5       30.19F
KINDERSLEY     MOSUNNY   79  63  57 SE12G20   30.19F
LLOYDMINSTER   MOSUNNY   82  59  44 SE15      30.17F
PRINCE ALBERT  MOSUNNY   77  61  57 N3        30.18F
REGINA         MOSUNNY   79  59  50 N10       30.21S
YORKTON        MOSUNNY   75  55  50 N9        30.20F
N. BATTLEFORD    N/A     79  64  61 SE7       30.21F
LA RONGE       MOSUNNY   82  48  30 SE9       30.16F
SASKATOON      MOSUNNY   81  57  44 NW5       30.21F
SWIFT CURRENT  SUNNY     81  48  32 S5        30.20F
$$
NOTE: THESE ARE AUTOMATED STATIONS WITH LIMITED QUALITY CONTROL
      "FAIR" INDICATES FEW OR NO CLOUDS BELOW 12,000 FEET WITH NO
      SIGNIFICANT WEATHER AND/OR OBSTRUCTIONS TO VISIBILITY.
      SKY/WX - SKY CONDITION AND SIGNIFICANT WEATHER.
      TMP - AIR TEMPERATURE.    DP   - DEWPOINT TEMPERATURE.
      RH  - RELATIVE HUMIDITY.  PRES - PRESSURE.
      HX  - HEAT INDEX.         WCI  - WIND CHILL INDEX.
$



USA.gov is the U.S. government's official web portal to all federal, state and local government web resources and services.